This is the latest recevied weather packets stored in our database for station/object KE5WTH-14. If no packets are shown the sender has not sent any weather packets the latest 10 day(s).
| Time | Temp. | Humidity | Pressure | Rain* | Wind** | Luminosity | Snow |
|---|---|---|---|---|---|---|---|
| 1777653095 | 16.67° C | 72% | 1017.6 hPa | 0 mm | - | 454 W/m² | - |
| 1777653035 | 16.67° C | 72% | 1017.7 hPa | 0 mm | - | 487 W/m² | - |
| 1777652974 | 16.67° C | 73% | 1017.7 hPa | 0 mm | - | 557 W/m² | - |
| 1777652917 | 16.67° C | 73% | 1017.8 hPa | 0 mm | - | 584 W/m² | - |
| 1777652853 | 16.11° C | 74% | 1017.8 hPa | 0 mm | - | 505 W/m² | - |
| 1777652793 | 16.11° C | 74% | 1017.8 hPa | 0 mm | - | 538 W/m² | - |
| 1777652732 | 16.11° C | 73% | 1017.8 hPa | 0 mm | - | 538 W/m² | - |
| 1777652672 | 16.11° C | 73% | 1018 hPa | 0 mm | - | 582 W/m² | - |
| 1777652613 | 16.11° C | 74% | 1018 hPa | 0 mm | - | 658 W/m² | - |
| 1777652554 | 16.11° C | 74% | 1018 hPa | 0 mm | - | 545 W/m² | - |
| 1777652491 | 16.11° C | 75% | 1018 hPa | 0 mm | - | 494 W/m² | - |
| 1777652431 | 16.11° C | 75% | 1017.8 hPa | 0 mm | - | 637 W/m² | - |
| 1777652373 | 16.11° C | 76% | 1017.7 hPa | 0 mm | - | 547 W/m² | - |
| 1777652312 | 16.11° C | 76% | 1017.7 hPa | 0 mm | - | 635 W/m² | - |
| 1777652251 | 15.56° C | 76% | 1017.6 hPa | 0 mm | - | 777 W/m² | - |
| 1777652191 | 15.56° C | 76% | 1017.7 hPa | 0 mm | - | 559 W/m² | - |
| 1777652132 | 15.56° C | 77% | 1017.6 hPa | 0 mm | - | 754 W/m² | - |
| 1777652072 | 15.56° C | 77% | 1017.6 hPa | 0 mm | - | 522 W/m² | - |
| 1777652012 | 15.56° C | 76% | 1017.6 hPa | 0 mm | - | 550 W/m² | - |
| 1777651952 | 15° C | 76% | 1017.6 hPa | 0 mm | - | 528 W/m² | - |
| 1777651892 | 15° C | 77% | 1017.6 hPa | 0 mm | - | 543 W/m² | - |
| 1777651833 | 15° C | 77% | 1017.5 hPa | 0 mm | - | 491 W/m² | - |
| 1777651772 | 15° C | 77% | 1017.7 hPa | 0 mm | - | 441 W/m² | - |
| 1777651711 | 15° C | 77% | 1017.6 hPa | 0 mm | - | 419 W/m² | - |
| 1777651649 | 15° C | 78% | 1017.6 hPa | 0 mm | - | 396 W/m² | - |
* Rain latest hour (hover to see other rain measurements)
** Current wind speed in m/s (hover to see current wind gust speed)